Weather History for Khudzhand, Russia

Change the Weather History Date:

Wednesday, February 20, 2013

  Actual Average Record
Temperature  
Mean Temperature 42 °F -  
Max Temperature 53 °F - - ()
Min Temperature 32 °F - - ()
Degree Days  
Heating Degree Days 22    
Moisture  
Dew Point 34 °F    
Average Humidity 74    
Maximum Humidity 93    
Minimum Humidity 44    
Precipitation  
Precipitation 0.00 in - - ()
Sea Level Pressure  
Sea Level Pressure 30.13 in    
Wind  
Wind Speed 9 mph ()    
Max Wind Speed 20 mph    
Max Gust Speed 29 mph    
Visibility 4.1 miles    
Events      
T = Trace of Precipitation, MM = Missing Value Source: Averaged Metar Reports

Daily Weather History Graph

Daily Weather History Graph

Search for Another Location

Airport:

Trip Planner

Search our weather history database for the weather conditions in past years. The results will help you decide how hot, cold, wet, or windy it might be!

Date:

Astronomy

Feb. 20, 2013 Rise Set
Actual Time 8:07 AM YEKT 7:02 PM YEKT
Civil Twilight 7:40 AM YEKT 7:30 PM YEKT
Nautical Twilight 7:08 AM YEKT 8:01 PM YEKT
Astronomical Twilight 6:37 AM YEKT 8:33 PM YEKT
Moon 2:01 PM YEKT (2/20) 4:07 AM YEKT (2/20)
Length of Visible Light 11h 49m
Length of Day
10h 54m
Waxing Gibbous, 72% of the Moon is Illuminated
Feb 20
Waxing Gibbous
Feb 26
Full
Mar 5
Last Quarter
Mar 12
New
Mar 19
First Quarter

Hourly Weather History & Observations

Time (YEKT) Temp. Windchill Dew Point Humidity Pressure Visibility Wind Dir Wind Speed Gust Speed Precip Events Conditions
12:00 AM 41.0 °F 33.6 °F 35.6 °F 81% 30.15 in 5.0 mi SW 13.4 mph 20.1 mph N/A   Partly Cloudy
12:30 AM 41.0 °F 33.6 °F 35.6 °F 81% 30.15 in 5.0 mi WSW 13.4 mph - N/A   Partly Cloudy
1:00 AM 41.0 °F 34.4 °F 35.6 °F 81% 30.18 in 5.0 mi WSW 11.2 mph - N/A   Scattered Clouds
1:30 AM 41.0 °F 35.4 °F 35.6 °F 81% 30.18 in 5.6 mi SW 8.9 mph - N/A   Scattered Clouds
2:00 AM 39.2 °F 33.1 °F 35.6 °F 87% 30.18 in 5.6 mi SW 8.9 mph - N/A   Scattered Clouds
2:30 AM 39.2 °F 34.4 °F 35.6 °F 87% 30.18 in 5.0 mi WSW 6.7 mph - N/A   Partly Cloudy
3:00 AM 39.2 °F 34.4 °F 35.6 °F 87% 30.18 in 3.7 mi WNW 6.7 mph - N/A   Clear
3:30 AM 39.2 °F 33.1 °F 35.6 °F 87% 30.15 in 4.3 mi SW 8.9 mph - N/A   Clear
4:00 AM 39.2 °F 33.1 °F 35.6 °F 87% 30.18 in 4.3 mi SW 8.9 mph - N/A   Clear
4:30 AM 37.4 °F 30.9 °F 35.6 °F 93% 30.15 in 5.0 mi SW 8.9 mph - N/A   Clear
5:00 AM 37.4 °F - 33.8 °F 87% 30.15 in 3.7 mi West 2.2 mph - N/A   Scattered Clouds
5:30 AM 35.6 °F - 33.8 °F 93% 30.15 in 3.7 mi Calm Calm - N/A   Mostly Cloudy
6:30 AM 33.8 °F 29.7 °F 30.2 °F 87% 30.15 in 1.9 mi NE 4.5 mph - N/A   Partly Cloudy
7:00 AM 32.0 °F 27.6 °F 30.2 °F 93% 30.18 in - SE 4.5 mph 11.2 mph N/A   Partly Cloudy
7:30 AM 32.0 °F - 30.2 °F 93% 30.18 in 1.9 mi ESE 2.2 mph - N/A   Mostly Cloudy
8:00 AM 33.8 °F 27.9 °F 32.0 °F 93% 30.18 in 1.2 mi SE 6.7 mph - N/A   Overcast
8:30 AM 35.6 °F - 33.8 °F 93% 30.18 in 1.0 mi East 2.2 mph - N/A   Overcast
9:00 AM 35.6 °F 31.8 °F 33.8 °F 93% 30.18 in 1.7 mi ENE 4.5 mph - N/A   Overcast
9:30 AM 39.2 °F 31.3 °F 37.4 °F 93% 30.18 in 1.9 mi ENE 13.4 mph - N/A   Overcast
10:00 AM 41.0 °F 32.3 °F 37.4 °F 87% 30.18 in - East 17.9 mph 24.6 mph N/A   Mostly Cloudy
10:30 AM 41.0 °F 32.3 °F 37.4 °F 87% 30.18 in - East 17.9 mph - N/A   Mostly Cloudy
11:00 AM 42.8 °F 34.7 °F 37.4 °F 81% 30.18 in - East 17.9 mph 24.6 mph N/A   Scattered Clouds
11:30 AM 44.6 °F 37.0 °F 37.4 °F 76% 30.18 in 3.1 mi East 17.9 mph 24.6 mph N/A   Scattered Clouds
12:00 PM 46.4 °F 39.3 °F 37.4 °F 71% 30.15 in 3.7 mi East 17.9 mph 26.8 mph N/A   Partly Cloudy
12:30 PM 48.2 °F - 37.4 °F 66% 30.15 in 3.7 mi East 20.1 mph 29.1 mph N/A   Partly Cloudy
1:00 PM 48.2 °F - 35.6 °F 62% 30.15 in 4.3 mi East 20.1 mph 26.8 mph N/A   Mostly Cloudy
1:30 PM 48.2 °F - 33.8 °F 58% 30.12 in 4.3 mi East 20.1 mph 29.1 mph N/A   Overcast
2:00 PM 50.0 °F - 33.8 °F 54% 30.12 in 6.2 mi ENE 17.9 mph 24.6 mph N/A   Overcast
2:30 PM 51.8 °F - 33.8 °F 50% 30.12 in 6.2 mi East 15.7 mph - N/A   Overcast
3:00 PM 51.8 °F - 33.8 °F 50% 30.12 in 6.2 mi East 17.9 mph - N/A   Overcast
4:19 PM 53.6 °F - 32.0 °F 44% 30.09 in 6.2 mi East 15.7 mph - N/A   Overcast
4:30 PM 53.6 °F - 33.8 °F 47% 30.09 in 6.2 mi East 13.4 mph - N/A   Overcast
5:00 PM 51.8 °F - 33.8 °F 50% 30.09 in 6.2 mi East 11.2 mph - N/A   Overcast
5:30 PM 53.6 °F - 33.8 °F 47% 30.09 in 6.2 mi ENE 11.2 mph - N/A   Overcast
6:00 PM 51.8 °F - 32.0 °F 47% 30.09 in 6.2 mi ENE 8.9 mph - N/A   Overcast
6:30 PM 51.8 °F - 32.0 °F 47% 30.09 in 5.0 mi ENE 8.9 mph - N/A   Overcast
7:00 PM 50.0 °F - 32.0 °F 50% 30.09 in 4.3 mi East 6.7 mph - N/A   Overcast
7:30 PM 48.2 °F - 32.0 °F 54% 30.09 in 3.7 mi NE 4.5 mph - N/A   Overcast
8:00 PM 46.4 °F - 33.8 °F 62% 30.09 in 3.7 mi Variable 2.2 mph - N/A   Overcast
8:30 PM 44.6 °F - 33.8 °F 66% 30.09 in 3.1 mi Calm Calm - N/A   Overcast
9:00 PM 39.2 °F - 32.0 °F 75% 30.06 in 3.1 mi Calm Calm - N/A   Overcast
9:30 PM 39.2 °F - 32.0 °F 75% 30.06 in 3.1 mi Calm Calm - N/A   Overcast
10:00 PM 37.4 °F 33.9 °F 30.2 °F 75% 30.06 in 3.1 mi Variable 4.5 mph - N/A   Overcast
10:30 PM 35.6 °F 31.8 °F 30.2 °F 81% 30.06 in 3.1 mi Variable 4.5 mph - N/A   Overcast
11:00 PM 35.6 °F - 30.2 °F 81% 30.06 in 3.7 mi Variable 2.2 mph - N/A   Overcast
11:30 PM 35.6 °F - 30.2 °F 81% 30.06 in 3.7 mi Calm Calm - N/A   Overcast